This demonstration page uses our WeatherBlox Daily Observations layout. Learn more.

39.92423, -83.80882

Hourly Observations for May 2, 2017

Temp ( °F °C ) Dew Point ( °F °C ) Humidity (%) Winds ( mph kmh ) Pressure ( in mb ) Visibility ( mi km ) Precip ( " mm )
12:56 am 00:56 Cloudy with Light Rain 49 9.4 43 6.1 80 80 SW 16 26 29.7 1006 10 16.0934 0 0.0254
1:56 am 01:56 Cloudy with Light Rain 48 8.9 43 6.1 83 83 SW 17 28 29.69 1005 10 16.0934 0 0.0254
2:56 am 02:56 Cloudy 48 8.9 42 5.6 80 80 SSW 16 26 29.67 1005 10 16.0934 0 0.0254
3:56 am 03:56 Cloudy 47 8.3 42 5.6 83 83 SW 23 37 29.67 1005 10 16.0934 0.01 0.254
4:56 am 04:56 Cloudy 46 7.8 41 5 83 83 SW 17 28 29.68 1005 10 16.0934 0 0.0254
5:56 am 05:56 Cloudy 45 7.2 40 4.4 83 83 WSW 21 33 29.7 1006 10 16.0934 0.02 0.508
6:51 am 06:51 Cloudy 45 7 39 4 81 81 WSW 18 30 29.74 1007 10 16.0934 0 0
6:56 am 06:56 Cloudy with Light Rain 45 7.2 40 4.4 83 83 WSW 20 31 29.71 1006 10 16.0934 0 0.0254
7:56 am 07:56 Cloudy 45 7.2 40 4.4 83 83 WSW 16 26 29.73 1007 10 16.0934 0 0.0254
8:56 am 08:56 Cloudy 47 8.3 41 5 80 80 WSW 21 33 29.74 1007 10 16.0934 0 0
9:04 am 09:04 Cloudy 46 8 39 4 76 76 WSW 22 35 29.74 1007 10 16.0934 0 0
9:40 am 09:40 Cloudy 48 9 39 4 71 71 WSW 23 37 29.74 1007 10 16.0934 0 0
9:56 am 09:56 Cloudy 49 9.4 39 3.9 69 69 W 22 35 29.75 1007 10 16.0934 0 0
10:56 am 10:56 Mostly Sunny 52 11.1 40 4.4 64 64 WSW 20 31 29.76 1008 10 16.0934 0 0
12:56 pm 12:56 Mostly Sunny 58 14.4 39 3.9 50 50 W 29 46 29.77 1008 10 16.0934 0 0
1:56 pm 13:56 Cloudy 60 15.6 41 5 50 50 W 24 39 29.78 1008 10 16.0934 0 0
2:56 pm 14:56 Mostly Cloudy 62 16.7 41 5 46 46 W 32 52 29.78 1008 10 16.0934 0 0
3:56 pm 15:56 Mostly Cloudy 61 16.1 40 4.4 46 46 WSW 30 48 29.79 1009 10 16.0934 0 0
4:56 pm 16:56 Cloudy 59 15 39 3.9 48 48 W 21 33 29.81 1010 10 16.0934 0 0
5:56 pm 17:56 Cloudy 57 13.9 41 5 55 55 W 20 31 29.85 1011 10 16.0934 0 0.0254
6:56 pm 18:56 Cloudy 53 11.7 43 6.1 69 69 WNW 14 22 29.89 1012 10 16.0934 0 0.0254
7:56 pm 19:56 Cloudy 51 10.6 40 4.4 66 66 WNW 14 22 29.92 1013 10 16.0934 0 0.0254
8:56 pm 20:56 Cloudy 50 10 38 3.3 63 63 W 24 39 29.94 1014 10 16.0934 0 0
10:56 pm 22:56 Cloudy 49 9.4 37 2.8 64 64 WNW 10 17 29.99 1016 10 16.0934 0 0
11:56 pm 23:56 Cloudy 48 8.9 37 2.8 66 66 W 13 20 30 1016 10 16.0934 0 0

Powered by AerisWeather